Time,TemperatureF,DewpointF,PressureIn,WindDirection,WindDirectionDegrees,WindSpeedMPH,WindSpeedGustMPH,Humidity,HourlyPrecipIn,Conditions,Clouds,dailyrainin,SoftwareType,DateUTC
2013-03-28 00:00:00,34.3,23.7,30.57,SW,225,0.0,1.1,65,0.00,,,0.00,WUHU216HW,2013-03-28 04:00:00,
2013-03-28 00:05:00,34.3,23.7,30.56,SW,225,0.0,0.0,65,0.00,,,0.00,WUHU216HW,2013-03-28 04:05:00,
2013-03-28 00:10:00,34.1,23.5,30.56,SW,225,0.8,0.8,65,0.00,,,0.00,WUHU216HW,2013-03-28 04:10:00,
2013-03-28 00:15:00,33.9,23.7,30.56,SW,225,0.0,1.1,66,0.00,,,0.00,WUHU216HW,2013-03-28 04:15:00,
2013-03-28 00:20:00,33.6,23.3,30.57,SW,225,2.0,2.0,66,0.00,,,0.00,WUHU216HW,2013-03-28 04:20:00,
2013-03-28 00:25:00,33.6,23.3,30.57,SW,225,0.0,2.0,66,0.00,,,0.00,WUHU216HW,2013-03-28 04:25:00,
2013-03-28 00:30:00,33.6,23.3,30.57,SW,225,0.0,1.7,66,0.00,,,0.00,WUHU216HW,2013-03-28 04:30:00,
2013-03-28 00:35:00,33.6,23.3,30.57,SW,225,0.0,0.0,66,0.00,,,0.00,WUHU216HW,2013-03-28 04:35:00,
2013-03-28 00:40:00,33.4,23.2,30.57,SW,225,0.0,0.0,66,0.00,,,0.00,WUHU216HW,2013-03-28 04:40:00,
2013-03-28 00:45:00,33.4,23.2,30.57,SW,225,0.0,0.0,66,0.00,,,0.00,WUHU216HW,2013-03-28 04:45:00,
2013-03-28 00:50:00,33.4,23.2,30.57,SW,225,0.0,0.0,66,0.00,,,0.00,WUHU216HW,2013-03-28 04:50:00,
2013-03-28 00:55:00,33.2,22.6,30.57,SW,225,0.0,0.0,65,0.00,,,0.00,WUHU216HW,2013-03-28 04:55:00,
2013-03-28 01:00:00,33.2,22.6,30.57,SW,225,0.0,0.0,65,0.00,,,0.00,WUHU216HW,2013-03-28 05:00:00,
2013-03-28 01:05:00,33.0,22.5,30.57,SW,225,0.0,0.0,65,0.00,,,0.00,WUHU216HW,2013-03-28 05:05:00,
2013-03-28 01:10:00,33.0,22.5,30.57,SW,225,0.0,0.0,65,0.00,,,0.00,WUHU216HW,2013-03-28 05:10:00,
2013-03-28 01:15:00,33.0,22.5,30.57,SW,225,0.0,0.0,65,0.00,,,0.00,WUHU216HW,2013-03-28 05:15:00,
2013-03-28 01:20:00,32.9,22.3,30.57,SW,225,0.0,0.0,65,0.00,,,0.00,WUHU216HW,2013-03-28 05:20:00,
2013-03-28 01:25:00,32.9,22.3,30.57,SW,225,1.7,1.7,65,0.00,,,0.00,WUHU216HW,2013-03-28 05:25:00,
2013-03-28 01:30:00,32.7,22.5,30.57,SW,225,0.0,1.7,66,0.00,,,0.00,WUHU216HW,2013-03-28 05:30:00,
2013-03-28 01:35:00,32.7,22.5,30.57,SW,225,0.0,1.7,66,0.00,,,0.00,WUHU216HW,2013-03-28 05:35:00,
2013-03-28 01:40:00,32.7,22.5,30.57,SW,225,0.0,2.4,66,0.00,,,0.00,WUHU216HW,2013-03-28 05:40:00,
2013-03-28 01:45:00,32.7,22.5,30.57,SW,225,0.0,2.4,66,0.00,,,0.00,WUHU216HW,2013-03-28 05:45:00,
2013-03-28 01:50:00,32.5,22.4,30.58,SW,225,0.0,0.0,66,0.00,,,0.00,WUHU216HW,2013-03-28 05:50:00,
2013-03-28 01:55:00,32.5,22.4,30.57,SW,225,0.0,0.0,66,0.00,,,0.00,WUHU216HW,2013-03-28 05:55:00,
2013-03-28 02:00:00,32.5,22.4,30.58,SW,225,0.0,0.0,66,0.00,,,0.00,WUHU216HW,2013-03-28 06:00:00,
2013-03-28 02:05:00,32.3,22.2,30.58,SW,225,0.0,0.0,66,0.00,,,0.00,WUHU216HW,2013-03-28 06:05:00,
2013-03-28 02:10:00,32.3,22.6,30.58,SW,225,0.0,0.0,67,0.00,,,0.00,WUHU216HW,2013-03-28 06:10:00,
2013-03-28 02:15:00,32.3,22.6,30.58,SW,225,0.0,0.0,67,0.00,,,0.00,WUHU216HW,2013-03-28 06:15:00,
2013-03-28 02:20:00,32.3,22.6,30.58,SW,225,0.0,0.0,67,0.00,,,0.00,WUHU216HW,2013-03-28 06:20:00,
2013-03-28 02:25:00,32.3,22.6,30.58,SW,225,0.0,0.0,67,0.00,,,0.00,WUHU216HW,2013-03-28 06:25:00,
2013-03-28 02:30:00,32.3,22.6,30.58,SW,225,0.0,0.0,67,0.00,,,0.00,WUHU216HW,2013-03-28 06:30:00,
2013-03-28 02:35:00,32.5,22.7,30.58,SW,225,0.0,0.0,67,0.00,,,0.00,WUHU216HW,2013-03-28 06:35:00,
2013-03-28 02:40:00,32.5,22.7,30.58,SW,225,0.0,0.0,67,0.00,,,0.00,WUHU216HW,2013-03-28 06:40:00,
2013-03-28 02:45:00,32.5,22.7,30.57,SW,225,0.0,0.0,67,0.00,,,0.00,WUHU216HW,2013-03-28 06:45:00,
2013-03-28 02:50:00,32.5,22.7,30.58,SW,225,0.0,0.0,67,0.00,,,0.00,WUHU216HW,2013-03-28 06:50:00,
2013-03-28 02:55:00,32.7,22.9,30.57,SW,225,0.0,0.0,67,0.00,,,0.00,WUHU216HW,2013-03-28 06:55:00,
2013-03-28 03:00:00,32.7,23.2,30.57,SW,225,0.0,0.0,68,0.00,,,0.00,WUHU216HW,2013-03-28 07:00:00,
2013-03-28 03:05:00,32.7,23.2,30.58,SW,225,0.0,0.0,68,0.00,,,0.00,WUHU216HW,2013-03-28 07:05:00,
2013-03-28 03:10:00,32.5,23.1,30.58,SW,225,0.0,0.0,68,0.00,,,0.00,WUHU216HW,2013-03-28 07:10:00,
2013-03-28 03:15:00,32.5,23.1,30.58,SW,225,0.0,0.0,68,0.00,,,0.00,WUHU216HW,2013-03-28 07:15:00,
2013-03-28 03:20:00,32.5,23.1,30.57,SW,225,0.0,0.0,68,0.00,,,0.00,WUHU216HW,2013-03-28 07:20:00,
2013-03-28 03:25:00,32.5,23.1,30.57,SW,225,0.0,0.0,68,0.00,,,0.00,WUHU216HW,2013-03-28 07:25:00,
2013-03-28 03:30:00,32.5,23.1,30.58,SW,225,0.0,0.0,68,0.00,,,0.00,WUHU216HW,2013-03-28 07:30:00,
2013-03-28 03:35:00,32.5,23.1,30.58,SW,225,0.0,0.0,68,0.00,,,0.00,WUHU216HW,2013-03-28 07:35:00,
2013-03-28 03:40:00,32.5,23.1,30.58,SW,225,0.0,0.0,68,0.00,,,0.00,WUHU216HW,2013-03-28 07:40:00,
2013-03-28 03:45:00,32.5,23.4,30.57,SW,225,0.0,0.0,69,0.00,,,0.00,WUHU216HW,2013-03-28 07:45:00,
2013-03-28 03:50:00,32.5,23.4,30.58,SW,225,0.0,0.0,69,0.00,,,0.00,WUHU216HW,2013-03-28 07:50:00,
2013-03-28 03:55:00,32.3,23.3,30.57,SW,225,0.0,0.0,69,0.00,,,0.00,WUHU216HW,2013-03-28 07:55:00,
2013-03-28 04:00:00,32.3,23.3,30.58,SW,225,0.0,0.0,69,0.00,,,0.00,WUHU216HW,2013-03-28 08:00:00,
2013-03-28 04:05:00,32.3,23.3,30.57,SW,225,0.0,0.0,69,0.00,,,0.00,WUHU216HW,2013-03-28 08:05:00,
2013-03-28 04:10:00,32.1,23.1,30.57,SW,225,0.0,0.0,69,0.00,,,0.00,WUHU216HW,2013-03-28 08:10:00,
2013-03-28 04:15:00,32.1,23.1,30.57,SW,225,0.0,0.0,69,0.00,,,0.00,WUHU216HW,2013-03-28 08:15:00,
2013-03-28 04:20:00,32.1,23.1,30.57,SW,225,0.0,0.0,69,0.00,,,0.00,WUHU216HW,2013-03-28 08:20:00,
2013-03-28 04:25:00,32.1,23.5,30.57,SW,225,0.0,0.0,70,0.00,,,0.00,WUHU216HW,2013-03-28 08:25:00,
2013-03-28 04:30:00,32.0,23.3,30.57,SW,225,0.0,0.0,70,0.00,,,0.00,WUHU216HW,2013-03-28 08:30:00,
2013-03-28 04:35:00,31.8,23.1,30.57,SW,225,0.0,0.0,70,0.00,,,0.00,WUHU216HW,2013-03-28 08:35:00,
2013-03-28 04:40:00,31.8,23.1,30.57,SW,225,0.0,0.0,70,0.00,,,0.00,WUHU216HW,2013-03-28 08:40:00,
2013-03-28 04:45:00,31.8,23.1,30.58,SW,225,0.0,0.0,70,0.00,,,0.00,WUHU216HW,2013-03-28 08:45:00,
2013-03-28 04:50:00,31.6,23.0,30.58,SW,225,0.0,0.0,70,0.00,,,0.00,WUHU216HW,2013-03-28 08:50:00,
2013-03-28 04:55:00,31.6,23.0,30.57,SW,225,0.0,0.0,70,0.00,,,0.00,WUHU216HW,2013-03-28 08:55:00,
2013-03-28 05:00:00,31.6,23.0,30.57,SW,225,0.0,0.0,70,0.00,,,0.00,WUHU216HW,2013-03-28 09:00:00,
2013-03-28 05:05:00,31.6,23.0,30.58,SW,225,0.0,0.0,70,0.00,,,0.00,WUHU216HW,2013-03-28 09:05:00,
2013-03-28 05:10:00,31.4,22.8,30.57,SW,225,0.0,0.0,70,0.00,,,0.00,WUHU216HW,2013-03-28 09:10:00,
2013-03-28 05:15:00,31.2,22.6,30.58,SW,225,0.0,0.0,70,0.00,,,0.00,WUHU216HW,2013-03-28 09:15:00,
2013-03-28 05:20:00,31.2,22.6,30.57,SW,225,0.0,0.0,70,0.00,,,0.00,WUHU216HW,2013-03-28 09:20:00,
2013-03-28 05:25:00,31.2,22.6,30.57,SW,225,0.0,0.0,70,0.00,,,0.00,WUHU216HW,2013-03-28 09:25:00,
2013-03-28 05:30:00,31.2,22.6,30.57,SW,225,0.0,0.0,70,0.00,,,0.00,WUHU216HW,2013-03-28 09:30:00,
2013-03-28 05:35:00,31.1,22.4,30.58,SW,225,0.0,0.0,70,0.00,,,0.00,WUHU216HW,2013-03-28 09:35:00,
2013-03-28 05:40:00,31.1,22.7,30.57,SW,225,0.0,0.0,71,0.00,,,0.00,WUHU216HW,2013-03-28 09:40:00,
2013-03-28 05:45:00,30.9,22.6,30.58,SW,225,0.0,0.0,71,0.00,,,0.00,WUHU216HW,2013-03-28 09:45:00,
2013-03-28 05:50:00,30.9,22.6,30.57,SW,225,0.0,0.0,71,0.00,,,0.00,WUHU216HW,2013-03-28 09:50:00,
2013-03-28 05:55:00,30.7,22.4,30.57,SW,225,0.0,0.0,71,0.00,,,0.00,WUHU216HW,2013-03-28 09:55:00,
2013-03-28 06:00:00,30.7,22.4,30.57,SW,225,0.0,0.0,71,0.00,,,0.00,WUHU216HW,2013-03-28 10:00:00,
2013-03-28 06:06:00,30.7,22.4,30.58,SW,225,0.0,0.0,71,0.00,,,0.00,WUHU216HW,2013-03-28 10:06:00,
2013-03-28 06:10:00,30.7,22.4,30.58,SW,225,0.0,0.0,71,0.00,,,0.00,WUHU216HW,2013-03-28 10:10:00,
2013-03-28 06:16:00,30.5,22.2,30.58,SW,225,0.0,0.0,71,0.00,,,0.00,WUHU216HW,2013-03-28 10:16:00,
2013-03-28 06:20:00,30.5,22.2,30.58,SW,225,0.0,0.0,71,0.00,,,0.00,WUHU216HW,2013-03-28 10:20:00,
2013-03-28 06:25:00,30.5,22.2,30.58,SW,225,0.0,0.0,71,0.00,,,0.00,WUHU216HW,2013-03-28 10:25:00,
2013-03-28 06:30:00,30.3,22.0,30.58,SW,225,0.0,0.0,71,0.00,,,0.00,WUHU216HW,2013-03-28 10:30:00,
2013-03-28 06:35:00,30.3,22.0,30.58,SW,225,0.0,0.0,71,0.00,,,0.00,WUHU216HW,2013-03-28 10:35:00,
2013-03-28 06:40:00,30.2,21.8,30.58,SW,225,0.0,0.0,71,0.00,,,0.00,WUHU216HW,2013-03-28 10:40:00,
2013-03-28 06:45:00,30.2,21.8,30.58,SW,225,0.0,0.0,71,0.00,,,0.00,WUHU216HW,2013-03-28 10:45:00,
2013-03-28 06:50:00,30.0,21.7,30.59,SW,225,0.0,0.0,71,0.00,,,0.00,WUHU216HW,2013-03-28 10:50:00,
2013-03-28 06:55:00,30.0,21.7,30.59,SW,225,0.0,0.0,71,0.00,,,0.00,WUHU216HW,2013-03-28 10:55:00,
2013-03-28 07:00:00,30.0,21.7,30.59,SW,225,0.0,0.0,71,0.00,,,0.00,WUHU216HW,2013-03-28 11:00:00,
2013-03-28 07:05:00,29.8,21.5,30.59,SW,225,0.0,0.0,71,0.00,,,0.00,WUHU216HW,2013-03-28 11:05:00,
2013-03-28 07:10:00,29.8,21.5,30.59,SW,225,0.0,0.0,71,0.00,,,0.00,WUHU216HW,2013-03-28 11:10:00,
2013-03-28 07:15:00,29.6,21.3,30.59,SW,225,0.0,0.0,71,0.00,,,0.00,WUHU216HW,2013-03-28 11:15:00,
2013-03-28 07:20:00,29.4,21.5,30.59,SW,225,0.0,0.0,72,0.00,,,0.00,WUHU216HW,2013-03-28 11:20:00,
2013-03-28 07:25:00,29.3,21.3,30.59,SW,225,0.0,0.0,72,0.00,,,0.00,WUHU216HW,2013-03-28 11:25:00,
2013-03-28 07:30:00,29.1,21.2,30.59,SW,225,0.0,0.0,72,0.00,,,0.00,WUHU216HW,2013-03-28 11:30:00,
2013-03-28 07:35:00,29.1,21.2,30.60,SW,225,0.0,0.0,72,0.00,,,0.00,WUHU216HW,2013-03-28 11:35:00,
2013-03-28 07:40:00,28.9,21.3,30.60,SW,225,0.0,0.0,73,0.00,,,0.00,WUHU216HW,2013-03-28 11:40:00,
2013-03-28 07:45:00,28.9,21.3,30.60,SW,225,0.0,0.0,73,0.00,,,0.00,WUHU216HW,2013-03-28 11:45:00,
2013-03-28 07:50:00,28.9,21.3,30.60,SW,225,0.0,0.0,73,0.00,,,0.00,WUHU216HW,2013-03-28 11:50:00,
2013-03-28 07:55:00,28.9,21.3,30.60,SW,225,0.0,0.0,73,0.00,,,0.00,WUHU216HW,2013-03-28 11:55:00,
2013-03-28 08:00:00,28.9,21.3,30.60,SW,225,0.0,0.0,73,0.00,,,0.00,WUHU216HW,2013-03-28 12:00:00,
2013-03-28 08:05:00,28.9,21.3,30.60,SW,225,0.0,0.0,73,0.00,,,0.00,WUHU216HW,2013-03-28 12:05:00,
2013-03-28 08:10:00,29.1,21.5,30.61,SW,225,0.0,0.0,73,0.00,,,0.00,WUHU216HW,2013-03-28 12:10:00,
2013-03-28 08:15:00,29.1,21.5,30.60,SW,225,0.0,0.0,73,0.00,,,0.00,WUHU216HW,2013-03-28 12:15:00,
2013-03-28 08:20:00,29.1,21.5,30.60,SW,225,0.0,0.0,73,0.00,,,0.00,WUHU216HW,2013-03-28 12:20:00,
2013-03-28 08:25:00,29.1,21.5,30.61,SW,225,0.0,0.0,73,0.00,,,0.00,WUHU216HW,2013-03-28 12:25:00,
2013-03-28 08:30:00,29.1,21.5,30.61,SW,225,0.0,0.0,73,0.00,,,0.00,WUHU216HW,2013-03-28 12:30:00,
2013-03-28 08:35:00,29.1,21.5,30.61,SW,225,0.0,0.0,73,0.00,,,0.00,WUHU216HW,2013-03-28 12:35:00,
2013-03-28 08:40:00,29.3,21.6,30.61,SW,225,0.0,0.0,73,0.00,,,0.00,WUHU216HW,2013-03-28 12:40:00,
2013-03-28 08:45:00,29.3,21.6,30.61,SW,225,0.0,0.0,73,0.00,,,0.00,WUHU216HW,2013-03-28 12:45:00,
2013-03-28 08:50:00,29.4,21.8,30.61,SW,225,0.0,0.0,73,0.00,,,0.00,WUHU216HW,2013-03-28 12:50:00,
2013-03-28 08:55:00,29.6,22.0,30.61,SW,225,0.0,0.0,73,0.00,,,0.00,WUHU216HW,2013-03-28 12:55:00,
2013-03-28 09:00:00,29.6,22.0,30.61,SW,225,0.0,0.0,73,0.00,,,0.00,WUHU216HW,2013-03-28 13:00:00,
2013-03-28 09:05:00,29.8,22.1,30.61,SW,225,0.0,0.0,73,0.00,,,0.00,WUHU216HW,2013-03-28 13:05:00,
2013-03-28 09:10:00,30.0,22.3,30.61,SW,225,0.0,0.0,73,0.00,,,0.00,WUHU216HW,2013-03-28 13:10:00,
2013-03-28 09:15:00,30.0,22.3,30.61,WSW,248,0.0,0.0,73,0.00,,,0.00,WUHU216HW,2013-03-28 13:15:00,
2013-03-28 09:20:00,30.5,22.8,30.61,WSW,248,0.0,0.0,73,0.00,,,0.00,WUHU216HW,2013-03-28 13:20:00,
2013-03-28 09:25:00,31.2,23.2,30.61,WSW,248,0.0,0.0,72,0.00,,,0.00,WUHU216HW,2013-03-28 13:25:00,
2013-03-28 09:30:00,31.8,23.8,30.61,NNW,338,0.0,0.0,72,0.00,,,0.00,WUHU216HW,2013-03-28 13:30:00,
2013-03-28 09:35:00,32.1,23.8,30.61,NW,315,0.0,0.0,71,0.00,,,0.00,WUHU216HW,2013-03-28 13:35:00,
2013-03-28 09:40:00,32.7,24.3,30.61,NNW,338,0.0,0.0,71,0.00,,,0.00,WUHU216HW,2013-03-28 13:40:00,
2013-03-28 09:45:00,33.0,24.3,30.61,North,0,0.0,0.0,70,0.00,,,0.00,WUHU216HW,2013-03-28 13:45:00,
2013-03-28 09:50:00,33.4,24.6,30.61,WSW,248,0.0,0.0,70,0.00,,,0.00,WUHU216HW,2013-03-28 13:50:00,
2013-03-28 09:55:00,33.9,24.8,30.61,WSW,248,0.0,0.0,69,0.00,,,0.00,WUHU216HW,2013-03-28 13:55:00,
2013-03-28 10:00:00,34.3,25.1,30.62,WSW,248,0.0,0.4,69,0.00,,,0.00,WUHU216HW,2013-03-28 14:00:00,
2013-03-28 10:05:00,34.5,25.3,30.62,WSW,248,0.0,0.4,69,0.00,,,0.00,WUHU216HW,2013-03-28 14:05:00,
2013-03-28 10:10:00,35.2,25.7,30.62,WNW,293,0.0,0.0,68,0.00,,,0.00,WUHU216HW,2013-03-28 14:10:00,
2013-03-28 10:15:00,35.7,26.2,30.61,WSW,248,0.0,0.0,68,0.00,,,0.00,WUHU216HW,2013-03-28 14:15:00,
2013-03-28 10:20:00,35.9,26.0,30.61,WSW,248,0.0,0.0,67,0.00,,,0.00,WUHU216HW,2013-03-28 14:20:00,
2013-03-28 10:25:00,36.3,26.3,30.61,WSW,248,0.0,0.0,67,0.00,,,0.00,WUHU216HW,2013-03-28 14:25:00,
2013-03-28 10:30:00,36.6,26.3,30.61,WNW,293,0.0,0.0,66,0.00,,,0.00,WUHU216HW,2013-03-28 14:30:00,
2013-03-28 10:35:00,37.0,26.3,30.61,WNW,293,0.0,0.0,65,0.00,,,0.00,WUHU216HW,2013-03-28 14:35:00,
2013-03-28 10:40:00,37.5,26.8,30.62,WSW,248,0.0,0.0,65,0.00,,,0.00,WUHU216HW,2013-03-28 14:40:00,
2013-03-28 10:45:00,37.7,27.0,30.62,WSW,248,0.0,1.1,65,0.00,,,0.00,WUHU216HW,2013-03-28 14:45:00,
2013-03-28 10:50:00,37.9,27.1,30.62,SW,225,0.0,1.1,65,0.00,,,0.00,WUHU216HW,2013-03-28 14:50:00,
2013-03-28 10:55:00,38.4,27.2,30.62,WSW,248,0.0,0.0,64,0.00,,,0.00,WUHU216HW,2013-03-28 14:55:00,
2013-03-28 11:00:00,38.4,26.9,30.62,WSW,248,0.0,0.0,63,0.00,,,0.00,WUHU216HW,2013-03-28 15:00:00,
2013-03-28 11:05:00,38.8,27.2,30.61,WSW,248,0.0,0.0,63,0.00,,,0.00,WUHU216HW,2013-03-28 15:05:00,
2013-03-28 11:10:00,39.3,27.7,30.62,NW,315,0.0,0.0,63,0.00,,,0.00,WUHU216HW,2013-03-28 15:10:00,
2013-03-28 11:15:00,39.7,27.3,30.61,West,270,0.0,0.0,61,0.00,,,0.00,WUHU216HW,2013-03-28 15:15:00,
2013-03-28 11:20:00,39.9,27.5,30.61,SW,225,0.0,0.0,61,0.00,,,0.00,WUHU216HW,2013-03-28 15:20:00,
2013-03-28 11:25:00,40.6,28.2,30.61,SW,225,0.0,3.8,61,0.00,,,0.00,WUHU216HW,2013-03-28 15:25:00,
2013-03-28 11:30:00,40.8,28.4,30.62,West,270,0.0,3.8,61,0.00,,,0.00,WUHU216HW,2013-03-28 15:30:00,
2013-03-28 11:35:00,41.0,27.7,30.62,North,0,0.0,1.7,59,0.00,,,0.00,WUHU216HW,2013-03-28 15:35:00,
2013-03-28 11:40:00,41.5,27.8,30.62,West,270,0.0,0.0,58,0.00,,,0.00,WUHU216HW,2013-03-28 15:40:00,
2013-03-28 11:45:00,41.5,27.8,30.62,West,270,0.0,0.0,58,0.00,,,0.00,WUHU216HW,2013-03-28 15:45:00,
2013-03-28 11:50:00,41.5,27.8,30.62,West,270,0.0,0.0,58,0.00,,,0.00,WUHU216HW,2013-03-28 15:50:00,
2013-03-28 11:55:00,43.7,29.4,30.62,SW,225,2.6,2.6,57,0.00,,,0.00,WUHU216HW,2013-03-28 15:55:00,
2013-03-28 12:00:00,44.4,29.6,30.62,WSW,248,0.8,3.5,56,0.00,,,0.00,WUHU216HW,2013-03-28 16:00:00,
2013-03-28 12:05:00,45.1,29.8,30.62,WSW,248,0.0,3.5,55,0.00,,,0.00,WUHU216HW,2013-03-28 16:05:00,
2013-03-28 12:10:00,46.4,30.1,30.62,SW,225,0.0,5.3,53,0.00,,,0.00,WUHU216HW,2013-03-28 16:10:00,
2013-03-28 12:15:00,47.1,29.4,30.61,NNW,338,0.0,5.3,50,0.00,,,0.00,WUHU216HW,2013-03-28 16:15:00,
2013-03-28 12:20:00,47.1,28.8,30.61,NNW,338,0.0,0.0,49,0.00,,,0.00,WUHU216HW,2013-03-28 16:20:00,
2013-03-28 12:25:00,48.2,30.8,30.60,WSW,248,0.0,2.0,51,0.00,,,0.00,WUHU216HW,2013-03-28 16:25:00,
2013-03-28 12:30:00,49.1,31.7,30.61,SW,225,1.7,2.0,51,0.00,,,0.00,WUHU216HW,2013-03-28 16:30:00,
2013-03-28 12:35:00,50.1,32.3,30.61,WNW,293,0.0,1.7,50,0.00,,,0.00,WUHU216HW,2013-03-28 16:35:00,
2013-03-28 12:40:00,51.2,32.1,30.61,WSW,248,4.4,4.4,48,0.00,,,0.00,WUHU216HW,2013-03-28 16:40:00,
2013-03-28 12:45:00,51.8,32.1,30.61,West,270,0.0,4.4,47,0.00,,,0.00,WUHU216HW,2013-03-28 16:45:00,
2013-03-28 12:57:00,51.4,29.5,30.60,SW,225,0.0,0.0,43,0.00,,,0.00,WUHU216HW,2013-03-28 16:57:00,
2013-03-28 13:02:00,51.4,30.1,30.60,SW,225,0.0,0.0,44,0.00,,,0.00,WUHU216HW,2013-03-28 17:02:00,
2013-03-28 13:07:00,52.1,30.7,30.60,West,270,0.0,0.0,44,0.00,,,0.00,WUHU216HW,2013-03-28 17:07:00,
2013-03-28 13:12:00,52.5,31.6,30.60,NNW,338,0.0,0.0,45,0.00,,,0.00,WUHU216HW,2013-03-28 17:12:00,
2013-03-28 13:17:00,53.2,31.1,30.60,NNW,338,0.0,1.7,43,0.00,,,0.00,WUHU216HW,2013-03-28 17:17:00,
2013-03-28 13:22:00,53.2,31.7,30.60,WSW,248,0.0,1.7,44,0.00,,,0.00,WUHU216HW,2013-03-28 17:22:00,
2013-03-28 13:27:00,53.6,32.2,30.60,WNW,293,0.0,5.8,44,0.00,,,0.00,WUHU216HW,2013-03-28 17:27:00,
2013-03-28 13:32:00,54.3,32.7,30.60,WSW,248,0.0,5.8,44,0.00,,,0.00,WUHU216HW,2013-03-28 17:32:00,
2013-03-28 13:37:00,54.5,32.8,30.60,SW,225,1.5,1.5,44,0.00,,,0.00,WUHU216HW,2013-03-28 17:37:00,
2013-03-28 13:42:00,54.6,32.4,30.59,North,0,0.6,2.2,43,0.00,,,0.00,WUHU216HW,2013-03-28 17:42:00,
2013-03-28 13:47:00,53.9,30.7,30.60,SSW,203,0.0,2.2,41,0.00,,,0.00,WUHU216HW,2013-03-28 17:47:00,
2013-03-28 13:52:00,53.4,30.2,30.60,West,270,0.0,0.6,41,0.00,,,0.00,WUHU216HW,2013-03-28 17:52:00,
2013-03-28 13:57:00,54.1,31.4,30.59,WSW,248,0.0,0.0,42,0.00,,,0.00,WUHU216HW,2013-03-28 17:57:00,
2013-03-28 14:02:00,54.3,32.1,30.60,West,270,0.0,0.0,43,0.00,,,0.00,WUHU216HW,2013-03-28 18:02:00,
2013-03-28 14:07:00,54.6,32.4,30.60,NNW,338,0.0,0.0,43,0.00,,,0.00,WUHU216HW,2013-03-28 18:07:00,
2013-03-28 14:12:00,54.6,31.9,30.59,WNW,293,0.0,0.0,42,0.00,,,0.00,WUHU216HW,2013-03-28 18:12:00,
2013-03-28 14:17:00,54.8,32.0,30.59,SW,225,3.5,3.5,42,0.00,,,0.00,WUHU216HW,2013-03-28 18:17:00,
2013-03-28 14:22:00,55.2,32.9,30.59,SSW,203,0.0,3.5,43,0.00,,,0.00,WUHU216HW,2013-03-28 18:22:00,
2013-03-28 14:27:00,55.2,32.4,30.59,WSW,248,0.0,3.5,42,0.00,,,0.00,WUHU216HW,2013-03-28 18:27:00,
2013-03-28 14:32:00,55.2,31.8,30.59,NW,315,0.0,0.0,41,0.00,,,0.00,WUHU216HW,2013-03-28 18:32:00,
2013-03-28 14:37:00,55.0,30.4,30.59,North,0,0.0,4.0,39,0.00,,,0.00,WUHU216HW,2013-03-28 18:37:00,
2013-03-28 14:42:00,53.9,29.4,30.59,North,0,2.6,4.0,39,0.00,,,0.00,WUHU216HW,2013-03-28 18:42:00,
2013-03-28 14:47:00,53.2,29.5,30.59,West,270,0.0,2.6,40,0.00,,,0.00,WUHU216HW,2013-03-28 18:47:00,
2013-03-28 14:52:00,53.2,30.6,30.59,WSW,248,0.0,2.6,42,0.00,,,0.00,WUHU216HW,2013-03-28 18:52:00,
2013-03-28 14:58:00,53.6,30.3,30.58,West,270,0.0,0.0,41,0.00,,,0.00,WUHU216HW,2013-03-28 18:58:00,
2013-03-28 15:03:00,53.9,31.4,30.58,WSW,248,6.7,6.7,42,0.00,,,0.00,WUHU216HW,2013-03-28 19:03:00,
2013-03-28 15:08:00,54.1,31.4,30.58,SW,225,1.3,6.7,42,0.00,,,0.00,WUHU216HW,2013-03-28 19:08:00,
2013-03-28 15:13:00,54.3,32.1,30.58,WSW,248,0.0,2.9,43,0.00,,,0.00,WUHU216HW,2013-03-28 19:13:00,
2013-03-28 15:18:00,54.1,31.0,30.58,WSW,248,0.0,1.3,42,0.00,,,0.00,WUHU216HW,2013-03-28 19:18:00,
2013-03-28 15:23:00,54.3,32.1,30.58,SW,225,0.0,0.0,43,0.00,,,0.00,WUHU216HW,2013-03-28 19:23:00,
2013-03-28 15:28:00,54.5,31.7,30.58,NW,315,0.0,0.0,42,0.00,,,0.00,WUHU216HW,2013-03-28 19:28:00,
2013-03-28 15:33:00,54.5,31.7,30.58,WSW,248,5.5,5.5,42,0.00,,,0.00,WUHU216HW,2013-03-28 19:33:00,
2013-03-28 15:38:00,54.5,31.7,30.58,SW,225,1.3,5.5,42,0.00,,,0.00,WUHU216HW,2013-03-28 19:38:00,
2013-03-28 15:43:00,54.3,31.0,30.58,WSW,248,0.0,5.5,41,0.00,,,0.00,WUHU216HW,2013-03-28 19:43:00,
2013-03-28 15:48:00,54.3,30.4,30.58,North,0,0.0,1.3,40,0.00,,,0.00,WUHU216HW,2013-03-28 19:48:00,
2013-03-28 15:53:00,53.7,30.0,30.58,West,270,0.0,0.0,40,0.00,,,0.00,WUHU216HW,2013-03-28 19:53:00,
2013-03-28 15:58:00,53.4,30.2,30.58,WSW,248,6.0,6.0,41,0.00,,,0.00,WUHU216HW,2013-03-28 19:58:00,
2013-03-28 16:03:00,53.4,30.7,30.58,WSW,248,2.0,6.0,42,0.00,,,0.00,WUHU216HW,2013-03-28 20:03:00,
2013-03-28 16:08:00,53.4,30.7,30.58,WSW,248,0.0,4.6,42,0.00,,,0.00,WUHU216HW,2013-03-28 20:08:00,
2013-03-28 16:13:00,53.4,30.7,30.57,SW,225,0.0,4.6,42,0.00,,,0.00,WUHU216HW,2013-03-28 20:13:00,
2013-03-28 16:18:00,53.4,30.7,30.58,West,270,0.0,4.6,42,0.00,,,0.00,WUHU216HW,2013-03-28 20:18:00,
2013-03-28 16:23:00,53.4,30.2,30.57,NNW,338,0.0,4.6,41,0.00,,,0.00,WUHU216HW,2013-03-28 20:23:00,
2013-03-28 16:28:00,53.2,30.0,30.57,NW,315,0.0,0.0,41,0.00,,,0.00,WUHU216HW,2013-03-28 20:28:00,
2013-03-28 16:33:00,53.2,30.6,30.57,WSW,248,0.0,0.0,42,0.00,,,0.00,WUHU216HW,2013-03-28 20:33:00,
2013-03-28 16:38:00,53.2,30.6,30.57,SW,225,0.0,0.0,42,0.00,,,0.00,WUHU216HW,2013-03-28 20:38:00,
2013-03-28 16:43:00,53.4,30.7,30.57,SW,225,1.3,5.3,42,0.00,,,0.00,WUHU216HW,2013-03-28 20:43:00,
2013-03-28 16:48:00,53.2,30.6,30.57,SW,225,2.9,5.3,42,0.00,,,0.00,WUHU216HW,2013-03-28 20:48:00,
2013-03-28 16:53:00,53.0,30.4,30.57,SW,225,3.1,3.5,42,0.00,,,0.00,WUHU216HW,2013-03-28 20:53:00,
2013-03-28 16:58:00,52.8,30.3,30.57,WSW,248,0.0,3.1,42,0.00,,,0.00,WUHU216HW,2013-03-28 20:58:00,
2013-03-28 17:03:00,52.8,29.7,30.57,NNW,338,1.1,3.1,41,0.00,,,0.00,WUHU216HW,2013-03-28 21:03:00,
2013-03-28 17:08:00,52.5,29.4,30.57,SW,225,0.0,1.1,41,0.00,,,0.00,WUHU216HW,2013-03-28 21:08:00,
2013-03-28 17:13:00,52.3,29.2,30.57,West,270,0.0,1.1,41,0.00,,,0.00,WUHU216HW,2013-03-28 21:13:00,
2013-03-28 17:18:00,51.8,29.3,30.57,WNW,293,0.0,0.0,42,0.00,,,0.00,WUHU216HW,2013-03-28 21:18:00,
2013-03-28 17:23:00,51.6,28.6,30.57,North,0,0.0,0.0,41,0.00,,,0.00,WUHU216HW,2013-03-28 21:23:00,
2013-03-28 17:28:00,51.4,28.4,30.56,NW,315,0.0,0.0,41,0.00,,,0.00,WUHU216HW,2013-03-28 21:28:00,
2013-03-28 17:33:00,51.4,29.0,30.56,WSW,248,0.0,0.0,42,0.00,,,0.00,WUHU216HW,2013-03-28 21:33:00,
2013-03-28 17:38:00,51.6,29.1,30.57,SW,225,0.0,0.0,42,0.00,,,0.00,WUHU216HW,2013-03-28 21:38:00,
2013-03-28 17:43:00,51.6,29.1,30.57,SW,225,0.0,0.0,42,0.00,,,0.00,WUHU216HW,2013-03-28 21:43:00,
2013-03-28 17:48:00,51.6,29.7,30.57,SW,225,0.0,3.1,43,0.00,,,0.00,WUHU216HW,2013-03-28 21:48:00,
2013-03-28 17:53:00,51.4,29.0,30.57,West,270,0.0,3.1,42,0.00,,,0.00,WUHU216HW,2013-03-28 21:53:00,
2013-03-28 17:58:00,51.4,29.5,30.57,WSW,248,0.0,0.0,43,0.00,,,0.00,WUHU216HW,2013-03-28 21:58:00,
2013-03-28 18:03:00,51.2,28.8,30.57,North,0,4.2,4.2,42,0.00,,,0.00,WUHU216HW,2013-03-28 22:03:00,
2013-03-28 18:08:00,50.9,28.5,30.57,SW,225,0.0,4.2,42,0.00,,,0.00,WUHU216HW,2013-03-28 22:08:00,
2013-03-28 18:13:00,50.7,28.9,30.57,West,270,0.0,4.2,43,0.00,,,0.00,WUHU216HW,2013-03-28 22:13:00,
2013-03-28 18:18:00,50.5,29.3,30.57,WSW,248,0.0,4.0,44,0.00,,,0.00,WUHU216HW,2013-03-28 22:18:00,
2013-03-28 18:23:00,50.5,29.3,30.57,WSW,248,0.0,2.2,44,0.00,,,0.00,WUHU216HW,2013-03-28 22:23:00,
2013-03-28 18:28:00,50.1,28.9,30.57,WSW,248,0.0,0.0,44,0.00,,,0.00,WUHU216HW,2013-03-28 22:28:00,
2013-03-28 18:33:00,50.1,28.9,30.57,NNW,338,0.0,0.0,44,0.00,,,0.00,WUHU216HW,2013-03-28 22:33:00,
2013-03-28 18:38:00,49.8,28.0,30.57,West,270,0.0,0.0,43,0.00,,,0.00,WUHU216HW,2013-03-28 22:38:00,
2013-03-28 18:43:00,49.6,27.9,30.57,SW,225,1.1,1.1,43,0.00,,,0.00,WUHU216HW,2013-03-28 22:43:00,
2013-03-28 18:48:00,49.2,28.1,30.57,WSW,248,0.0,1.1,44,0.00,,,0.00,WUHU216HW,2013-03-28 22:48:00,
2013-03-28 18:53:00,49.1,27.4,30.58,NNW,338,0.0,0.0,43,0.00,,,0.00,WUHU216HW,2013-03-28 22:53:00,
2013-03-28 18:58:00,48.9,27.2,30.58,NNW,338,0.0,0.0,43,0.00,,,0.00,WUHU216HW,2013-03-28 22:58:00,
2013-03-28 19:03:00,48.7,27.6,30.58,WSW,248,0.0,0.0,44,0.00,,,0.00,WUHU216HW,2013-03-28 23:03:00,
2013-03-28 19:08:00,48.3,27.3,30.58,SW,225,5.3,5.3,44,0.00,,,0.00,WUHU216HW,2013-03-28 23:08:00,
2013-03-28 19:13:00,48.2,26.6,30.58,SW,225,0.0,5.3,43,0.00,,,0.00,WUHU216HW,2013-03-28 23:13:00,
2013-03-28 19:18:00,47.8,26.8,30.58,SW,225,0.0,0.0,44,0.00,,,0.00,WUHU216HW,2013-03-28 23:18:00,
2013-03-28 19:23:00,47.6,26.6,30.58,SW,225,0.0,0.0,44,0.00,,,0.00,WUHU216HW,2013-03-28 23:23:00,
2013-03-28 19:28:00,47.4,26.4,30.58,SW,225,0.0,0.0,44,0.00,,,0.00,WUHU216HW,2013-03-28 23:28:00,
2013-03-28 19:33:00,47.1,26.1,30.58,SW,225,0.0,0.0,44,0.00,,,0.00,WUHU216HW,2013-03-28 23:33:00,
2013-03-28 19:38:00,46.9,26.0,30.58,SW,225,0.0,0.0,44,0.00,,,0.00,WUHU216HW,2013-03-28 23:38:00,
2013-03-28 19:43:00,46.7,25.8,30.58,SW,225,0.0,0.0,44,0.00,,,0.00,WUHU216HW,2013-03-28 23:43:00,
2013-03-28 19:48:00,46.5,25.6,30.58,SW,225,0.0,0.0,44,0.00,,,0.00,WUHU216HW,2013-03-28 23:48:00,
2013-03-28 19:53:00,46.2,25.3,30.58,SW,225,0.0,0.0,44,0.00,,,0.00,WUHU216HW,2013-03-28 23:53:00,
2013-03-28 19:58:00,46.0,25.1,30.58,SW,225,0.0,0.0,44,0.00,,,0.00,WUHU216HW,2013-03-28 23:58:00,
2013-03-28 20:03:00,45.6,24.8,30.58,SW,225,0.0,0.0,44,0.00,,,0.00,WUHU216HW,2013-03-29 00:03:00,
2013-03-28 20:08:00,45.5,24.7,30.58,SW,225,0.0,0.0,44,0.00,,,0.00,WUHU216HW,2013-03-29 00:08:00,
2013-03-28 20:13:00,45.3,25.0,30.58,SW,225,0.0,0.0,45,0.00,,,0.00,WUHU216HW,2013-03-29 00:13:00,
2013-03-28 20:18:00,44.9,24.7,30.58,SW,225,0.0,0.0,45,0.00,,,0.00,WUHU216HW,2013-03-29 00:18:00,
2013-03-28 20:23:00,44.7,24.6,30.59,SW,225,0.0,0.0,45,0.00,,,0.00,WUHU216HW,2013-03-29 00:23:00,
2013-03-28 20:28:00,44.4,24.2,30.59,SW,225,0.0,0.0,45,0.00,,,0.00,WUHU216HW,2013-03-29 00:28:00,
2013-03-28 20:33:00,43.8,24.3,30.59,SW,225,0.0,0.0,46,0.00,,,0.00,WUHU216HW,2013-03-29 00:33:00,
2013-03-28 20:38:00,43.5,24.0,30.59,SW,225,0.0,0.0,46,0.00,,,0.00,WUHU216HW,2013-03-29 00:38:00,
2013-03-28 20:43:00,43.1,24.2,30.60,SW,225,0.0,0.0,47,0.00,,,0.00,WUHU216HW,2013-03-29 00:43:00,
2013-03-28 20:48:00,42.6,23.7,30.60,SW,225,0.0,0.0,47,0.00,,,0.00,WUHU216HW,2013-03-29 00:48:00,
2013-03-28 20:53:00,42.2,23.9,30.60,SW,225,0.0,0.0,48,0.00,,,0.00,WUHU216HW,2013-03-29 00:53:00,
2013-03-28 20:58:00,41.7,23.3,30.60,SW,225,0.0,0.0,48,0.00,,,0.00,WUHU216HW,2013-03-29 00:58:00,
2013-03-28 21:03:00,41.1,23.3,30.60,SW,225,1.1,1.1,49,0.00,,,0.00,WUHU216HW,2013-03-29 01:03:00,
2013-03-28 21:08:00,41.0,23.1,30.60,SW,225,0.0,2.2,49,0.00,,,0.00,WUHU216HW,2013-03-29 01:08:00,
2013-03-28 21:13:00,40.8,23.5,30.61,SW,225,0.0,2.6,50,0.00,,,0.00,WUHU216HW,2013-03-29 01:13:00,
2013-03-28 21:18:00,40.8,23.5,30.61,SW,225,1.5,3.1,50,0.00,,,0.00,WUHU216HW,2013-03-29 01:18:00,
2013-03-28 21:23:00,40.8,23.9,30.60,SW,225,1.7,3.1,51,0.00,,,0.00,WUHU216HW,2013-03-29 01:23:00,
2013-03-28 21:28:00,40.6,23.8,30.61,WSW,248,0.0,1.7,51,0.00,,,0.00,WUHU216HW,2013-03-29 01:28:00,
2013-03-28 21:33:00,40.6,23.8,30.61,SW,225,0.0,5.1,51,0.00,,,0.00,WUHU216HW,2013-03-29 01:33:00,
2013-03-28 21:38:00,40.4,23.6,30.61,WSW,248,0.0,5.1,51,0.00,,,0.00,WUHU216HW,2013-03-29 01:38:00,
2013-03-28 21:43:00,40.2,23.9,30.61,SW,225,0.0,0.0,52,0.00,,,0.00,WUHU216HW,2013-03-29 01:43:00,
2013-03-28 21:48:00,40.1,23.7,30.61,WSW,248,0.0,0.0,52,0.00,,,0.00,WUHU216HW,2013-03-29 01:48:00,
2013-03-28 21:53:00,39.9,23.6,30.61,WSW,248,0.0,0.0,52,0.00,,,0.00,WUHU216HW,2013-03-29 01:53:00,
2013-03-28 21:58:00,39.7,23.4,30.61,WSW,248,0.0,0.0,52,0.00,,,0.00,WUHU216HW,2013-03-29 01:58:00,
2013-03-28 22:03:00,39.3,23.1,30.62,WSW,248,0.0,0.0,52,0.00,,,0.00,WUHU216HW,2013-03-29 02:03:00,
2013-03-28 22:08:00,39.3,23.5,30.62,WSW,248,0.0,0.0,53,0.00,,,0.00,WUHU216HW,2013-03-29 02:08:00,
2013-03-28 22:13:00,39.0,23.2,30.62,WSW,248,0.0,0.0,53,0.00,,,0.00,WUHU216HW,2013-03-29 02:13:00,
2013-03-28 22:18:00,38.8,23.0,30.62,WSW,248,0.0,0.0,53,0.00,,,0.00,WUHU216HW,2013-03-29 02:18:00,
2013-03-28 22:23:00,38.4,22.7,30.63,WSW,248,0.0,0.0,53,0.00,,,0.00,WUHU216HW,2013-03-29 02:23:00,
2013-03-28 22:28:00,38.4,22.7,30.63,WSW,248,0.0,0.0,53,0.00,,,0.00,WUHU216HW,2013-03-29 02:28:00,
2013-03-28 22:33:00,38.1,22.4,30.63,WSW,248,0.0,0.0,53,0.00,,,0.00,WUHU216HW,2013-03-29 02:33:00,
2013-03-28 22:38:00,37.9,22.2,30.63,WSW,248,0.0,0.0,53,0.00,,,0.00,WUHU216HW,2013-03-29 02:38:00,
2013-03-28 22:43:00,37.7,22.5,30.63,WSW,248,0.0,0.0,54,0.00,,,0.00,WUHU216HW,2013-03-29 02:43:00,
2013-03-28 22:48:00,37.2,22.0,30.62,WSW,248,0.0,0.0,54,0.00,,,0.00,WUHU216HW,2013-03-29 02:48:00,
2013-03-28 22:53:00,37.0,22.3,30.63,WSW,248,0.0,0.0,55,0.00,,,0.00,WUHU216HW,2013-03-29 02:53:00,
2013-03-28 22:58:00,36.6,21.9,30.63,WSW,248,0.0,0.0,55,0.00,,,0.00,WUHU216HW,2013-03-29 02:58:00,
2013-03-28 23:03:00,36.3,21.6,30.63,WSW,248,0.0,0.0,55,0.00,,,0.00,WUHU216HW,2013-03-29 03:03:00,
2013-03-28 23:08:00,36.1,21.9,30.63,WSW,248,0.0,0.0,56,0.00,,,0.00,WUHU216HW,2013-03-29 03:08:00,
2013-03-28 23:13:00,35.7,21.6,30.63,WSW,248,0.0,0.0,56,0.00,,,0.00,WUHU216HW,2013-03-29 03:13:00,
2013-03-28 23:18:00,35.4,21.7,30.63,WSW,248,0.0,0.0,57,0.00,,,0.00,WUHU216HW,2013-03-29 03:18:00,
2013-03-28 23:23:00,35.2,21.5,30.63,WSW,248,0.0,0.0,57,0.00,,,0.00,WUHU216HW,2013-03-29 03:23:00,
2013-03-28 23:28:00,34.8,21.5,30.63,WSW,248,0.0,0.0,58,0.00,,,0.00,WUHU216HW,2013-03-29 03:28:00,
2013-03-28 23:33:00,34.7,21.4,30.63,WSW,248,0.0,0.0,58,0.00,,,0.00,WUHU216HW,2013-03-29 03:33:00,
2013-03-28 23:38:00,34.5,21.2,30.63,WSW,248,0.0,0.0,58,0.00,,,0.00,WUHU216HW,2013-03-29 03:38:00,
2013-03-28 23:43:00,34.3,21.0,30.63,WSW,248,0.0,0.0,58,0.00,,,0.00,WUHU216HW,2013-03-29 03:43:00,
2013-03-28 23:48:00,34.3,21.0,30.63,WSW,248,0.0,0.0,58,0.00,,,0.00,WUHU216HW,2013-03-29 03:48:00,
2013-03-28 23:53:00,33.9,20.6,30.63,WSW,248,0.0,0.0,58,0.00,,,0.00,WUHU216HW,2013-03-29 03:53:00,
2013-03-28 23:58:00,33.8,20.9,30.63,WSW,248,0.0,0.0,59,0.00,,,0.00,WUHU216HW,2013-03-29 03:58:00,